軌道要素
Epoch 2023 Sept. 13.0 TT = JDT 2460200.5
T 2023 Nov. 15.17173 TT Rudenko
q 10.3129920 (2000.0) P Q
z +0.0000940 Peri. 280.69453 +0.15942370 +0.96243235
+/-0.0000003 Node 347.23904 +0.26396252 -0.25608945
e 0.9990306 Incl. 84.29777 -0.95126646 +0.09023393
>From 511 observations 2015 Jan. 22-2023 Aug. 26, mean residual 0".5.
|